Regional Weather Roundup
Issued by NWS

Home | Current Version | Previous Version | Text Only | Print | Product List | Glossary On
Versions: 1 2 3 4 5 6 7 8 9 10 11 12 13 14 15 16 17 18 19 20 21 22 23 24 25 26 27 28 29 30 31 32 33 34 35 36 37 38 39 40 41 42 43 44 45 46 47 48 49 50
000
ASUS43 KMKX 280811
RWRWI

WISCONSIN REGIONAL WEATHER ROUNDUP
NATIONAL WEATHER SERVICE MILWAUKEE/SULLIVAN WI
300 AM CDT TUE APR 28 2015

NOTE: "FAIR" INDICATES FEW OR NO CLOUDS BELOW 12,000 FEET WITH NO
SIGNIFICANT WEATHER AND/OR OBSTRUCTIONS TO VISIBILITY.

WIZ001-002-006>008-014>016-023>028-280900-
NORTHWEST WISCONSIN

CITY           SKY/WX    TMP DP  RH WIND       PRES   REMARKS
SUPERIOR ARPT  CLEAR     31  30  98 CALM      30.16S
ASHLAND        PTCLDY    31  28  89 W5        30.16R WCI  26
HAYWARD        PTCLDY    33  28  81 NE3       30.15S
SIREN          CLEAR     36  29  76 CALM      30.14F
CUMBERLAND     PTCLDY    37  32  81 CALM      30.15S
RICE LAKE      PTCLDY    36  33  86 CALM      30.17S
CHETEK         PTCLDY    36  32  86 CALM      30.15F
LADYSMITH      CLEAR     38  31  76 CALM      30.17R
EAU CLAIRE     CLEAR     39  28  64 CALM      30.14S
MENOMONIE      CLEAR     42  34  73 CALM      30.15S
NEW RICHMOND   PTCLDY    39  32  75 CALM      30.15S
OSCEOLA        PTCLDY    40  32  72 CALM      30.18S
$$

WIZ003>005-009-010-017-018-280900-
NORTH CENTRAL WISCONSIN

CITY           SKY/WX    TMP DP  RH WIND       PRES   REMARKS
MANITOWISH WTR CLEAR     30  30 100 CALM      30.14F
ARBOR VITAE    CLEAR     34  30  85 CALM      30.15S
WOODRUFF       CLEAR     34  30  85 CALM      30.15S
RHINELANDER    CLEAR     35  27  72 CALM      30.16S
EAGLE RIVER    CLEAR     29  28  96 CALM      30.15S
LAND O LAKES   CLEAR     28  27  96 CALM      30.16S
PHILLIPS       CLEAR     32  30  93 CALM      30.14S
TOMAHAWK       CLEAR     29  26  89 CALM      30.16F
MEDFORD        CLEAR     40  28  63 E5        30.15S
MERRILL        CLEAR     31  28  88 CALM      30.16F
$$

WIZ029-030-035-036-043>047-280900-
CENTRAL WISCONSIN

CITY           SKY/WX    TMP DP  RH WIND       PRES   REMARKS
WAUSAU         CLEAR     40  34  79 CALM      30.15S
MOSINEE        CLEAR     37  34  87 CALM      30.17S
MARSHFIELD     CLEAR     41  34  76 SE5       30.16R
STEVENS POINT  CLEAR     33  31  92 CALM      30.17R
WAUPACA        CLEAR     37  33  86 CALM      30.16F
WAUTOMA        CLEAR     32  31  96 CALM      30.17S
WISC RAPIDS    CLEAR     36  31  82 CALM      30.17S
CAMP DOUGLAS   CLEAR     35  35 100 E5        30.15S WCI  31
$$

WIZ011>013-019>022-031-037>040-048>050-280900-
NORTHEAST WISCONSIN

CITY           SKY/WX    TMP DP  RH WIND       PRES   REMARKS
ANTIGO         CLEAR     32  30  93 CALM      30.17S
SHAWANO        CLEAR     37  35  90 CALM      30.17S
OCONTO         CLEAR     31  31 100 CALM      30.16S
STURGEON BAY   CLEAR     37  30  75 N6        30.17S WCI  33
GREEN BAY      CLEAR     38  33  82 N6        30.16S WCI  33
MANITOWOC      CLEAR     38  33  82 N5        30.15F WCI  34
APPLETON       CLEAR     34  30  86 N5        30.16S WCI  30
CLINTONVILLE   CLEAR     34  32  93 CALM      30.16S
OSHKOSH        CLEAR     43  33  68 NE5       30.15S
$$

WIZ032>034-041-042-053>061-280900-
SOUTHWEST WISCONSIN

CITY           SKY/WX    TMP DP  RH WIND       PRES   REMARKS
LA CROSSE      CLEAR     44  40  85 CALM      30.14R
SPARTA         CLEAR     32  29  87 CALM      30.15S
VIROQUA        CLEAR     48  30  49 NE5       30.13S
BOSCOBEL       CLEAR     38  34  85 NE5       30.14R WCI  34
PRAIRIE DU CHI CLEAR     42  36  80 CALM      30.13S
PLATTEVILLE    CLEAR     42  35  78 E10       30.12R
$$

WIZ056-057-062-063-064-067-068-280900-
SOUTH CENTRAL WISCONSIN

CITY           SKY/WX    TMP DP  RH WIND       PRES   REMARKS
REEDSBURG      CLEAR     41  34  77 NE3       30.15R
BARABOO/DELLS  CLEAR     37  32  81 E3        30.15S
LONE ROCK      CLEAR     42  36  79 E8        30.15R
MINERAL POINT  CLEAR     43  36  75 E8        30.13R
MADISON        CLEAR     37  32  82 CALM      30.15S
MIDDLETON      CLEAR     38  33  83 CALM      30.16R
WATERTOWN      CLEAR     34  34  99 CALM      30.14S
MONROE         CLEAR     41  34  75 SE6       30.13F
JANESVILLE     CLEAR     37  34  87 CALM      30.14S
$$

WIZ051-052-058>065-066-070>072-280900-
SOUTHEAST WISCONSIN

CITY           SKY/WX    TMP DP  RH WIND       PRES   REMARKS
MILWAUKEE      CLEAR     42  32  67 N12       30.14S
WAUKESHA       CLEAR     36  30  80 CALM      30.15R
MILWAUKEE/TIMM CLEAR     36  30  80 CALM      30.14S
RACINE         CLEAR     41  33  73 N10       30.14S
BURLINGTON     CLEAR     32  30  94 NW5       30.14R WCI  27
KENOSHA        FAIR      39  32  76 N5        30.13R
FOND DU LAC    CLEAR     33  29  85 CALM      30.15S
SHEBOYGAN      CLEAR     38  31  76 N6        30.14S WCI  33
WEST BEND      CLEAR     34  32  93 CALM      30.14S
JUNEAU         CLEAR     34  31  89 CALM      30.15S
$$

LSZ147-162-280900-
LAKE SUPERIOR

STATION/POSITION TIME  TEMP    WIND        PRES    WAVE
                       AIR SEA DIR/SP/G            HT/PER
                 (UTC) (F)     (DEG/KT/KT) (MB)    (FT/S)
W MID LAKE BUOY  0750   36 34  140/  6/  6 1022.3F   0
DEVILS ISLAND    0800   41      90/  4/  4 1021.8F
PORT WING        0740   34     150/  1/  3 1021.3S
SAXON HARBOR     0700   34        CALM     1020.3F
$$

LMZ867-665-643>646-280900-
LAKE MICHIGAN

STATION/POSITION TIME  TEMP    WIND        PRES    WAVE
                       AIR SEA DIR/SP/G            HT/PER
                 (UTC) (F)     (DEG/KT/KT) (MB)    (FT/S)
CHAMBERS ISLAND  0700   38     310/  3/  5 1021.3S
NORTHPORT PIER   0700   39     330/  5/  7 1021.0S
SISTER BAY       0747   38        CALM       N/A
KEWAUNEE LAKESHO 0706   37                   N/A
SHEBOYGAN LAKESH 0800   42      10/ 11/ 12 1021.5S
PORT WASHINGTON  0740   42     360/  5/  6 1021.0F
MILWAUKEE LAKESH 0700   44      10/ 13/ 17   N/A
KENOSHA   LAKESH 0800   43     340/  7/ 10 1020.3R
$$

TC  - TEMPERATURE IN CELSIUS
VSB - VISIBILITY IN STATUTE MILES
WCI - WIND CHILL INDEX
HX  - HEAT INDEX




USA.gov is the U.S. government's official web portal to all federal, state and local government web resources and services.